Regional Weather Roundup
Issued by NWS Cleveland, OH

Home | Current Version | Previous Version | Graphics & Text | Print | Product List | Glossary On
Versions: 1 2 3 4 5 6 7 8 9 10 11 12 13 14 15 16 17 18 19 20 21 22 23 24 25 26 27 28 29 30 31 32 33 34 35 36 37 38 39 40 41 42 43 44 45 46 47 48 49 50
000
ASUS41 KCLE 180400
RWRCLE
OHIO REGIONAL WEATHER ROUNDUP
NATIONAL WEATHER SERVICE WILMINGTON, OH
1100 PM EST WED JAN 17 2018

NOTE: "FAIR" INDICATES FEW OR NO CLOUDS BELOW 12,000 FEET WITH NO
SIGNIFICANT WEATHER AND/OR OBSTRUCTIONS TO VISIBILITY.

OHZ001>008-015>018-024>027-034-035-043-044-180500-
   NORTHWEST OHIO

CITY           SKY/WX    TMP DP  RH WIND       PRES   REMARKS
DEFIANCE       FAIR      13   6  74 SW12      30.29F WCI  -1
FINDLAY        FAIR      16   7  67 SW14      30.31F WCI   2
TOLEDO EXPRESS FAIR      15   9  76 SW15      30.25F WCI   0
TOLEDO EXEC    FAIR      14   8  77 SW20      30.26F WCI  -3
LIMA           FAIR      14   8  77 SW17      30.32F WCI  -3
$$

OHZ009>014-019>023-028>033-038-089-180500-
   NORTHEAST OHIO

CITY           SKY/WX    TMP DP  RH WIND       PRES   REMARKS
CLE-HOPKINS    FAIR      15   7  70 SW13      30.30F WCI   1
CLE-LAKEFRONT  FAIR      16   6  65 S14       30.27F WCI   2
CUY CO. ARPT   CLEAR     16   7  67 SW10G21   30.26F WCI   3
LORAIN-ELYRIA  FAIR      13   4  67 SW16      30.29F WCI  -3
ASHTABULA      FAIR      10   5  80 S13       30.24F WCI  -5
AKRON-CANTON   FAIR       7   2  80 SW12      30.29F WCI  -8
WOOSTER        NOT AVBL
MANSFIELD      FAIR      12   7  80 SW14      30.28F WCI  -3
YOUNGSTOWN     FAIR       8   4  83 SW12      30.26F WCI  -7
$$

OHZ042-051>053-060>062-070>072-077>081-180500-
  SOUTHWEST OHIO

CITY           SKY/WX    TMP DP  RH WIND       PRES   REMARKS
CINC-COVINGTON FAIR      13   9  84 SW9       30.43F WCI   1
CINC-LUNKEN    FAIR      14   9  80 SW7       30.48F WCI   4
HAMILTON       FAIR      16  10  77 SW6       30.46F WCI   7
DAYTON         NOT AVBL
WRIGHT-PAT AFB CLOUDY    14   6  71 SW13      30.39F WCI   0
DAYTON GENERAL FAIR      15   8  73 SW9       30.39F WCI   3
WILMINGTON     FAIR       6   5  95 SW10      30.39F WCI  -9
$$

OHZ036-037-039>041-045>050-054>059-063>069-073>076-082>088-180500-
  CENTRAL AND SOUTHEAST OHIO

CITY           SKY/WX    TMP DP  RH WIND       PRES   REMARKS
COLUMBUS       FAIR       8   5  87 S6        30.39F WCI  -2
OSU AIRPORT    FAIR      11   7  84 SW9       30.37F WCI  -2
BOLTON FIELD   NOT AVBL
RICKENBACK AFB NOT AVBL
NEWARK         FAIR       2  -1  88 S3        30.38F
MARION         FAIR      12   6  77 SW14      30.33F WCI  -3
LANCASTER      FAIR      11   6  81 SW9       30.40F WCI  -2
ZANESVILLE     FAIR       8   3  80 SW7       30.38F WCI  -3
NEW PHILLY     FAIR       6   3  87 CALM      30.36F
$$




USA.gov is the U.S. government's official web portal to all federal, state and local government web resources and services.